Location: *
(50.3440°N, 18.6237°E)
Time: 18:30:00
(UTC+00:00)

SKYMED 2 - Pass Details

Date: 30 November 2020
Orbit: 621 x 623 km, 97.9° (Epoch: 23 January)

Event Time Altitude Azimuth Distance (km) Brightness Sun altitude
Exits shadow 16:20:00 21° 48° (NE) 1,424 4.9 -14.4°
Maximum altitude 16:22:09 32° 96° (E) 1,078 4.3 -14.7°
Drops below altitude 10° 16:26:02 10° 160° (SSE) 1,989 6.1 -15.3°
Sets 16:28:24 0° 170° (S) 2,890 7.1 -15.7°
